SCP
0 0 0 0 0 0 0 0 0 0 0 0 0 0 0 0 0 0 0 0 0 0 0 0 0 0 0 0 0 0 0 0 0 0 0 0 0 0 0 0 0 0 0
0 0 0 0 0 0 0 0 0 0 0 0 0 0 0 0 0 0 0 0 0 0 0 0 0 0 0 0 0 0 0 0 0 0 0 0 0 0 0 0 0 0 0
0 0 0 0 0 0 0 0 0 0 0 0 0 0 0 0 0 0 0 0 0 0 0 0 0 0 0 0 0 0 0 0 0 0 0 0 0 0 0 0 0 0 0
0 0 0 0 0 0 0 0 0 0 0 0 0 0 0 0 0 0 0 0 0 0 0 0 0 0 0 0 0 0 0 0 0 0 0 0 0 0 0 0 0 0 0
0 0 0 0 0 0 0 0 0 0 0 0 0 0 0 0 0 0 0 0 0 0 0 0 0 0 0 0 0 0 0 0 0 0 0 0 0 0 0 0 0 0 0
0 0 0 0 0 0 0 0 0 0 0 0 0 0 0 0 0 0 0 0 0 0 0 0 0 0 0 0 0 0 0 0 0 0 0 0 0 0 0 0 0 0 0
0 0 0 0 0 0 0 0 0 0 0 0 0 0 0 0 0 0 0 0 0 0 0 0 0 0 0 0 0 0 0 0 0 0 0 0 0 0 0 0 0 0 0
0 0 0 0 0 0 0 0 0 0 0 0 0 0 0 0 0 0 0 0 0 0 0 0 0 0 0 0 0 0 0 0 0 0 0 0 0 0 0 0 0 0 0
0 0 0 0 0 0 0 0 0 0 0 0 0 0 0 0 0 0 0 0 0 0 0 0 0 0 0 0 0 0 0 0 0 0 0 0 0 0 0 0 0 0 0
0 0 0 0 0 0 0 0 0 0 0 0 0 0 0 0 0 0 0 0 0 0 0 0 0 0 0 0 0 0 0 0 0 0 0 0 0 0 0 0 0 0 0
0 0 0 0 0 0 0 0 0 0 0 0 0 0 0 0 0 0 0 0 0 0 0 0 0 0 0 0 0 0 0 0 0 0 0 0 0 0 0 0 0 0 0
0 0 0 0 -0 -0 -0 -0 -0 -0 -0 -0 0 -0 0 0 0 0 0 0 0 0 0 0 0 0 0 0 0 0 0 0 0 0 0 0 0 0 0 0 0 0 0
0 -0 -0 -0 -0 -0 -0 -0 -0 -0 -0 -0 -0 0 -0 -0 0 0 0 0 0 0 0 0 0 0 0 0 0 0 0 0 0 0 0 0 0 0 0 0 0 0 0
-0 -0 -0 -0 -0 -0 -0 -0 -0 -0 -0 -0 -0 -0 -0 -0 -0 0 0 0 0 0 0 0 0 0 0 0 0 0 0 0 0 0 0 0 0 0 0 0 0 0 0
0 0 -0 -0 -0 -0 -0 -0 -0 -0 -0 -0 -0 -0 0 -0 -0 0 0 0 0 0 0 0 0 0 0 0 0 0 0 0 0 0 0 0 0 0 0 0 0 0 0
0 0 0 0 0 -0 -0 -0 -0 0 0 0 0 0 0 0 -0 0 0 0 0 0 0 0 0 0 0 0 0 0 0 0 0 0 0 0 0 0 0 0 0 0 0
0 0 0 0 0 0 0 0 0 0 0 0 0 0 -0 0 0 0 0 0 0 0 0 0 0 0 0 0 0 0 0 0 0 0 0 0 0 0 0 0 0 0 0
0 0 0 0 0 0 0 0 0 0 0 0 0 0 -0 -0 0 0 0 0 0 0 0 0 0 0 0 0 0 0 0 0 0 0 0 0 0 0 0 0 0 0 0
0 0 0 0 0 0 0 0 0 0 0 0 0 0 -0 -0 -0 0 0 0 0 0 0 0 0 0 0 0 0 0 0 0 0 0 0 0 0 0 0 0 0 0 0
0 0 0 0 0 0 0 0 0 0 -0 -0 -0 -0 -0 -0 0 0 0 0 0 0 0 0 0 0 0 0 0 0 0 0 0 0 0 0 0 0 0 0 0 0 0
0 0 0 0 0 0 0 0 0 0 -0 -0 -0 -0 -0 -0 -0 -0 -0 -0 0 0 0 0 0 0 0 0 0 0 0 0 0 0 0 0 0 0 0 0 0 0 0
0 0 0 0 0 0 0 0 0 0 0 0 0 -0 -0 -0 -0 -0 -0 -0 -0 0 0 0 0 0 0 0 0 0 0 0 0 0 0 0 0 0 0 0 0 0 0
0 0 0 0 0 0 0 0 0 0 0 0 0 0 0 -0 -0 -0 -0 -0 -0 -0 0 0 0 0 0 0 0 0 0 0 0 0 0 0 0 0 0 0 0 0 0
0 0 0 0 0 0 0 0 0 0 0 0 0 0 0 0 -0 -0 -0 -0 -0 -0 0 0 0 0 0 0 0 0 0 0 0 0 0 0 0 0 0 0 0 0 0
0 0 0 0 0 0 0 0 0 0 0 0 0 0 0 0 -0 -0 -0 -0 -0 -0 0 0 0 0 0 0 0 0 0 0 0 0 0 0 0 0 0 0 0 0 0
0 0 0 0 0 0 0 0 0 0 0 0 0 0 0 0 -0 -0 -0 -0 -0 -0 0 0 0 0 0 0 0 0 0 0 0 0 0 0 0 0 0 0 0 0 0
Wind_Speed_500mb
28 20 16 9 8 19 29 33 40 42 43 43 40 38 37 46 50 57 57 60 38 38 36 25 28 29 27 21 20 19 16 14 14 12 7 8 10 12 13 11 6 2 1
39 34 26 17 10 5 18 29 29 35 39 42 46 41 37 42 49 39 54 58 48 42 34 23 29 26 24 25 24 21 19 18 18 15 11 8 14 21 20 16 13 9 7
50 49 45 39 25 13 6 12 22 26 30 35 41 44 42 35 38 38 54 60 50 48 40 31 33 27 29 27 26 23 22 21 21 24 16 8 11 16 25 22 18 16 13
51 54 55 51 41 33 24 12 7 9 12 20 30 37 39 39 34 33 42 59 59 50 46 34 36 35 32 30 28 26 24 24 25 26 31 31 21 12 11 30 26 24 18
48 54 58 59 54 41 33 24 9 1 10 10 19 29 32 34 35 33 34 46 47 43 34 38 44 33 36 33 31 29 27 26 28 30 30 35 39 33 24 13 31 32 24
42 48 52 54 56 55 46 35 24 14 5 15 14 15 25 32 33 32 34 38 44 44 42 42 39 46 38 36 34 33 31 29 30 31 33 36 34 38 38 27 20 32 27
37 43 49 53 55 58 56 52 39 26 16 7 16 19 20 24 29 31 35 38 43 44 51 42 48 50 34 40 38 36 34 31 32 32 34 38 40 37 36 37 23 29 31
33 37 42 46 48 50 51 50 46 42 31 16 10 17 22 29 29 30 32 36 38 39 40 40 34 42 42 43 42 40 36 33 33 33 34 37 38 40 39 37 35 27 29
28 30 33 38 42 44 46 46 44 41 37 34 24 18 21 27 30 30 29 30 32 30 35 40 38 49 48 45 46 43 37 35 34 33 34 34 35 36 37 38 36 34 28
20 24 26 30 33 36 37 37 38 40 38 34 30 28 23 25 29 33 31 32 31 28 32 41 43 46 45 49 49 44 38 36 34 32 32 32 33 34 33 34 35 40 30
16 19 20 24 27 30 31 33 34 33 31 33 32 29 28 24 26 31 33 33 34 31 32 33 47 47 49 53 49 45 39 36 33 31 30 30 32 33 33 32 31 33 35
14 18 19 22 24 29 32 33 33 34 34 33 31 32 31 30 28 28 32 36 36 36 34 34 39 49 49 53 51 45 40 36 31 28 27 28 29 31 32 31 29 25 26
29 27 23 20 22 27 32 33 35 36 36 37 34 31 31 33 30 30 32 37 40 41 39 37 37 44 52 54 48 46 42 36 29 25 22 23 26 29 32 31 30 28 26
46 30 27 26 23 20 25 29 33 36 38 39 40 40 35 35 38 35 33 36 42 43 43 40 39 40 46 50 52 51 45 37 30 23 21 22 25 28 31 30 29 27 24
38 40 33 30 31 24 20 22 30 33 38 43 44 44 42 38 40 40 37 36 40 46 45 44 42 42 46 46 51 49 47 39 33 26 23 23 26 29 29 28 27 25 22
66 48 42 36 38 33 27 25 26 32 35 38 42 45 46 45 43 45 43 38 38 43 49 47 47 47 45 46 49 50 48 42 38 32 28 28 31 32 31 31 30 27 23
65 56 50 45 43 39 33 30 25 30 35 39 43 45 46 44 46 46 49 43 38 41 47 50 51 50 48 46 50 51 50 46 42 38 35 33 33 33 33 32 29 27 26
69 63 58 51 50 39 40 32 28 30 35 40 43 46 48 47 45 47 49 50 44 40 46 51 51 52 53 49 51 53 52 50 46 41 38 35 33 33 34 32 30 29 27
66 66 55 49 42 40 40 35 32 33 36 37 41 45 49 51 50 48 48 50 52 46 44 50 54 54 56 54 52 56 56 54 50 46 43 38 37 36 36 35 31 29 27
63 51 35 38 45 46 38 39 38 35 37 36 38 41 47 51 52 53 52 50 53 52 47 49 54 57 58 57 56 57 58 57 55 52 47 44 42 43 40 35 33 30 28
50 45 43 44 43 44 42 48 42 45 36 39 41 42 46 50 53 55 56 54 53 53 50 47 52 59 61 59 60 60 61 60 58 56 53 52 51 48 43 39 35 30 31
50 40 46 49 46 51 51 56 55 49 39 43 44 45 48 51 51 57 58 58 55 55 51 48 50 58 64 61 63 62 61 60 58 57 53 51 51 49 46 44 41 42 37
51 43 43 47 50 52 63 61 65 47 44 47 47 49 52 53 54 58 60 62 59 57 52 50 53 58 62 65 64 64 64 63 60 57 51 47 50 51 50 47 46 43 40
57 54 52 48 49 53 59 66 60 47 47 52 53 55 59 59 58 59 60 60 62 59 53 52 57 58 61 67 65 69 70 68 64 60 56 53 54 52 51 53 51 44 41
61 58 58 60 61 60 58 52 55 52 55 58 61 64 65 65 66 63 63 63 63 60 54 59 59 61 65 67 65 71 79 78 72 67 65 64 63 62 61 60 54 50 47
70 68 61 62 64 65 63 57 57 59 62 65 69 72 70 70 71 71 71 65 65 62 59 53 60 59 54 52 58 68 75 76 77 76 73 72 71 72 71 67 62 57 52
Wind_Direction_500mb
36 34 23 353 246 234 236 240 239 244 247 243 249 256 254 245 246 248 243 248 214 230 233 231 237 240 247 256 262 269 268 261 250 234 223 233 236 227 216 209 201 218 232
44 43 38 37 30 262 245 243 243 235 241 244 247 256 260 253 248 263 252 239 224 216 213 232 249 249 258 263 267 268 264 257 246 240 230 229 243 235 228 224 230 246 245
41 43 43 39 36 31 338 270 247 237 240 244 246 253 257 252 252 254 247 239 223 212 199 214 247 251 257 259 263 264 262 259 254 243 232 217 230 229 231 227 231 240 242
49 47 46 45 42 36 24 344 280 239 280 265 264 256 257 267 276 272 270 243 239 209 211 208 239 245 255 260 262 262 263 262 259 254 247 243 250 239 225 227 227 234 238
46 46 47 48 47 47 42 36 32 176 217 244 264 259 262 265 268 270 270 263 242 230 224 220 234 245 257 261 263 264 262 262 260 257 261 254 248 246 242 234 222 227 229
46 48 47 48 49 49 50 50 47 43 318 257 252 261 264 265 269 275 273 269 259 242 232 231 241 251 252 260 262 262 262 264 263 262 259 254 251 246 236 232 225 220 223
42 41 40 40 40 43 44 45 44 41 31 331 298 275 258 269 277 280 280 280 275 265 242 222 243 240 253 262 262 262 262 265 268 266 262 256 250 246 238 236 232 215 214
42 38 36 35 35 35 36 38 39 40 30 12 347 291 285 265 264 271 277 282 283 280 263 240 229 247 260 262 263 262 263 267 269 269 266 258 251 242 238 238 233 215 209
36 36 33 30 28 26 26 27 26 28 28 26 10 326 304 282 269 264 263 271 280 279 262 250 230 251 260 258 261 259 262 267 269 270 267 259 251 244 239 236 228 219 211
27 27 25 24 22 19 17 15 13 15 13 12 11 3 334 297 286 272 264 259 265 269 266 253 254 237 259 254 256 257 259 267 271 270 265 257 248 242 236 230 223 219 224
7 6 7 7 7 7 6 5 3 3 4 360 355 353 350 326 295 282 267 252 248 250 259 259 256 236 257 254 252 256 258 264 267 268 262 253 244 237 229 221 217 217 214
332 339 336 343 350 354 357 360 356 354 353 352 347 339 338 337 319 288 274 264 248 245 251 254 253 247 239 253 248 252 257 261 264 268 261 250 238 229 220 214 211 206 203
323 311 307 308 325 340 346 351 352 350 345 341 337 333 326 328 326 313 282 265 259 250 245 247 248 250 247 245 249 252 250 254 256 260 254 244 229 218 213 209 207 203 198
306 294 295 278 286 311 328 340 345 344 343 337 333 333 330 325 324 319 307 278 259 254 248 242 244 247 247 244 243 245 246 247 245 245 239 228 222 213 209 205 203 200 196
286 292 289 273 275 280 302 327 336 337 337 335 332 331 332 327 319 319 313 297 267 253 249 245 240 238 240 239 240 240 242 240 238 230 223 215 210 205 205 203 200 193 190
293 291 280 278 270 267 282 304 325 331 329 324 323 327 329 329 323 317 316 309 285 256 249 247 243 238 237 235 235 236 240 238 233 226 219 217 212 207 202 197 196 193 190
292 288 284 277 284 261 267 284 300 317 321 319 317 319 324 328 326 320 316 314 300 268 249 244 242 239 234 234 234 233 235 234 232 226 220 219 216 211 205 197 195 194 191
292 287 290 280 281 265 255 270 284 302 310 311 311 313 318 323 328 326 319 315 307 286 253 244 240 239 234 231 234 232 231 232 230 226 224 221 218 214 206 200 197 194 192
299 294 288 275 260 250 250 259 272 290 302 307 307 311 315 319 323 325 323 316 309 300 274 247 240 237 233 232 231 231 229 227 226 225 223 219 215 212 210 204 201 200 196
306 303 282 277 271 250 247 255 267 280 296 299 306 313 317 319 320 321 322 317 310 303 289 259 241 236 234 232 233 231 229 227 224 222 221 216 214 212 211 209 205 205 202
301 292 280 277 274 250 251 256 266 274 290 288 295 303 311 318 320 315 316 316 309 301 293 277 249 238 232 231 232 232 230 228 225 223 221 217 213 212 208 206 204 200 200
301 291 289 281 274 257 256 264 268 281 280 281 287 294 299 305 312 312 310 313 310 299 292 281 265 244 234 230 231 230 229 229 228 225 223 220 218 216 210 204 201 203 200
298 293 289 282 275 267 258 262 270 274 278 280 286 289 291 296 303 306 308 308 310 297 290 281 270 257 239 232 229 227 228 224 224 223 222 220 217 215 209 203 204 205 203
294 291 289 285 279 275 271 264 267 269 274 282 289 290 289 291 296 299 302 303 305 298 287 280 270 263 251 235 226 223 221 222 219 217 215 212 213 211 209 205 208 204 205
289 290 289 283 275 271 269 267 259 263 270 280 286 289 288 288 290 293 296 298 299 297 280 276 272 264 257 243 231 223 219 218 214 213 210 205 205 205 205 206 208 205 203
289 286 281 278 274 270 266 256 254 257 264 273 280 284 284 284 287 290 291 292 295 295 279 263 263 264 262 256 233 226 223 223 218 212 209 206 207 206 206 206 206 206 206
Wind_Speed_850mb
28 20 16 9 8 19 29 33 40 42 43 43 40 38 37 46 50 57 57 60 38 38 36 25 28 29 27 21 20 19 16 14 14 12 7 8 10 12 13 11 6 2 1
39 34 26 17 10 5 18 29 29 35 39 42 46 41 37 42 49 39 54 58 48 42 34 23 29 26 24 25 24 21 19 18 18 15 11 8 14 21 20 16 13 9 7
50 49 45 39 25 13 6 12 22 26 30 35 41 44 42 35 38 38 54 60 50 48 40 31 33 27 29 27 26 23 22 21 21 24 16 8 11 16 25 22 18 16 13
51 54 55 51 41 33 24 12 7 9 12 20 30 37 39 39 34 33 42 59 59 50 46 34 36 35 32 30 28 26 24 24 25 26 31 31 21 12 11 30 26 24 18
48 54 58 59 54 41 33 24 9 1 10 10 19 29 32 34 35 33 34 46 47 43 34 38 44 33 36 33 31 29 27 26 28 30 30 35 39 33 24 13 31 32 24
42 48 52 54 56 55 46 35 24 14 5 15 14 15 25 32 33 32 34 38 44 44 42 42 39 46 38 36 34 33 31 29 30 31 33 36 34 38 38 27 20 32 27
37 43 49 53 55 58 56 52 39 26 16 7 16 19 20 24 29 31 35 38 43 44 51 42 48 50 34 40 38 36 34 31 32 32 34 38 40 37 36 37 23 29 31
33 37 42 46 48 50 51 50 46 42 31 16 10 17 22 29 29 30 32 36 38 39 40 40 34 42 42 43 42 40 36 33 33 33 34 37 38 40 39 37 35 27 29
28 30 33 38 42 44 46 46 44 41 37 34 24 18 21 27 30 30 29 30 32 30 35 40 38 49 48 45 46 43 37 35 34 33 34 34 35 36 37 38 36 34 28
20 24 26 30 33 36 37 37 38 40 38 34 30 28 23 25 29 33 31 32 31 28 32 41 43 46 45 49 49 44 38 36 34 32 32 32 33 34 33 34 35 40 30
16 19 20 24 27 30 31 33 34 33 31 33 32 29 28 24 26 31 33 33 34 31 32 33 47 47 49 53 49 45 39 36 33 31 30 30 32 33 33 32 31 33 35
14 18 19 22 24 29 32 33 33 34 34 33 31 32 31 30 28 28 32 36 36 36 34 34 39 49 49 53 51 45 40 36 31 28 27 28 29 31 32 31 29 25 26
29 27 23 20 22 27 32 33 35 36 36 37 34 31 31 33 30 30 32 37 40 41 39 37 37 44 52 54 48 46 42 36 29 25 22 23 26 29 32 31 30 28 26
46 30 27 26 23 20 25 29 33 36 38 39 40 40 35 35 38 35 33 36 42 43 43 40 39 40 46 50 52 51 45 37 30 23 21 22 25 28 31 30 29 27 24
38 40 33 30 31 24 20 22 30 33 38 43 44 44 42 38 40 40 37 36 40 46 45 44 42 42 46 46 51 49 47 39 33 26 23 23 26 29 29 28 27 25 22
66 48 42 36 38 33 27 25 26 32 35 38 42 45 46 45 43 45 43 38 38 43 49 47 47 47 45 46 49 50 48 42 38 32 28 28 31 32 31 31 30 27 23
65 56 50 45 43 39 33 30 25 30 35 39 43 45 46 44 46 46 49 43 38 41 47 50 51 50 48 46 50 51 50 46 42 38 35 33 33 33 33 32 29 27 26
69 63 58 51 50 39 40 32 28 30 35 40 43 46 48 47 45 47 49 50 44 40 46 51 51 52 53 49 51 53 52 50 46 41 38 35 33 33 34 32 30 29 27
66 66 55 49 42 40 40 35 32 33 36 37 41 45 49 51 50 48 48 50 52 46 44 50 54 54 56 54 52 56 56 54 50 46 43 38 37 36 36 35 31 29 27
63 51 35 38 45 46 38 39 38 35 37 36 38 41 47 51 52 53 52 50 53 52 47 49 54 57 58 57 56 57 58 57 55 52 47 44 42 43 40 35 33 30 28
50 45 43 44 43 44 42 48 42 45 36 39 41 42 46 50 53 55 56 54 53 53 50 47 52 59 61 59 60 60 61 60 58 56 53 52 51 48 43 39 35 30 31
50 40 46 49 46 51 51 56 55 49 39 43 44 45 48 51 51 57 58 58 55 55 51 48 50 58 64 61 63 62 61 60 58 57 53 51 51 49 46 44 41 42 37
51 43 43 47 50 52 63 61 65 47 44 47 47 49 52 53 54 58 60 62 59 57 52 50 53 58 62 65 64 64 64 63 60 57 51 47 50 51 50 47 46 43 40
57 54 52 48 49 53 59 66 60 47 47 52 53 55 59 59 58 59 60 60 62 59 53 52 57 58 61 67 65 69 70 68 64 60 56 53 54 52 51 53 51 44 41
61 58 58 60 61 60 58 52 55 52 55 58 61 64 65 65 66 63 63 63 63 60 54 59 59 61 65 67 65 71 79 78 72 67 65 64 63 62 61 60 54 50 47
70 68 61 62 64 65 63 57 57 59 62 65 69 72 70 70 71 71 71 65 65 62 59 53 60 59 54 52 58 68 75 76 77 76 73 72 71 72 71 67 62 57 52
Wind_Direction_850mb
36 34 23 353 246 234 236 240 239 244 247 243 249 256 254 245 246 248 243 248 214 230 233 231 237 240 247 256 262 269 268 261 250 234 223 233 236 227 216 209 201 218 232
44 43 38 37 30 262 245 243 243 235 241 244 247 256 260 253 248 263 252 239 224 216 213 232 249 249 258 263 267 268 264 257 246 240 230 229 243 235 228 224 230 246 245
41 43 43 39 36 31 338 270 247 237 240 244 246 253 257 252 252 254 247 239 223 212 199 214 247 251 257 259 263 264 262 259 254 243 232 217 230 229 231 227 231 240 242
49 47 46 45 42 36 24 344 280 239 280 265 264 256 257 267 276 272 270 243 239 209 211 208 239 245 255 260 262 262 263 262 259 254 247 243 250 239 225 227 227 234 238
46 46 47 48 47 47 42 36 32 176 217 244 264 259 262 265 268 270 270 263 242 230 224 220 234 245 257 261 263 264 262 262 260 257 261 254 248 246 242 234 222 227 229
46 48 47 48 49 49 50 50 47 43 318 257 252 261 264 265 269 275 273 269 259 242 232 231 241 251 252 260 262 262 262 264 263 262 259 254 251 246 236 232 225 220 223
42 41 40 40 40 43 44 45 44 41 31 331 298 275 258 269 277 280 280 280 275 265 242 222 243 240 253 262 262 262 262 265 268 266 262 256 250 246 238 236 232 215 214
42 38 36 35 35 35 36 38 39 40 30 12 347 291 285 265 264 271 277 282 283 280 263 240 229 247 260 262 263 262 263 267 269 269 266 258 251 242 238 238 233 215 209
36 36 33 30 28 26 26 27 26 28 28 26 10 326 304 282 269 264 263 271 280 279 262 250 230 251 260 258 261 259 262 267 269 270 267 259 251 244 239 236 228 219 211
27 27 25 24 22 19 17 15 13 15 13 12 11 3 334 297 286 272 264 259 265 269 266 253 254 237 259 254 256 257 259 267 271 270 265 257 248 242 236 230 223 219 224
7 6 7 7 7 7 6 5 3 3 4 360 355 353 350 326 295 282 267 252 248 250 259 259 256 236 257 254 252 256 258 264 267 268 262 253 244 237 229 221 217 217 214
332 339 336 343 350 354 357 360 356 354 353 352 347 339 338 337 319 288 274 264 248 245 251 254 253 247 239 253 248 252 257 261 264 268 261 250 238 229 220 214 211 206 203
323 311 307 308 325 340 346 351 352 350 345 341 337 333 326 328 326 313 282 265 259 250 245 247 248 250 247 245 249 252 250 254 256 260 254 244 229 218 213 209 207 203 198
306 294 295 278 286 311 328 340 345 344 343 337 333 333 330 325 324 319 307 278 259 254 248 242 244 247 247 244 243 245 246 247 245 245 239 228 222 213 209 205 203 200 196
286 292 289 273 275 280 302 327 336 337 337 335 332 331 332 327 319 319 313 297 267 253 249 245 240 238 240 239 240 240 242 240 238 230 223 215 210 205 205 203 200 193 190
293 291 280 278 270 267 282 304 325 331 329 324 323 327 329 329 323 317 316 309 285 256 249 247 243 238 237 235 235 236 240 238 233 226 219 217 212 207 202 197 196 193 190
292 288 284 277 284 261 267 284 300 317 321 319 317 319 324 328 326 320 316 314 300 268 249 244 242 239 234 234 234 233 235 234 232 226 220 219 216 211 205 197 195 194 191
292 287 290 280 281 265 255 270 284 302 310 311 311 313 318 323 328 326 319 315 307 286 253 244 240 239 234 231 234 232 231 232 230 226 224 221 218 214 206 200 197 194 192
299 294 288 275 260 250 250 259 272 290 302 307 307 311 315 319 323 325 323 316 309 300 274 247 240 237 233 232 231 231 229 227 226 225 223 219 215 212 210 204 201 200 196
306 303 282 277 271 250 247 255 267 280 296 299 306 313 317 319 320 321 322 317 310 303 289 259 241 236 234 232 233 231 229 227 224 222 221 216 214 212 211 209 205 205 202
301 292 280 277 274 250 251 256 266 274 290 288 295 303 311 318 320 315 316 316 309 301 293 277 249 238 232 231 232 232 230 228 225 223 221 217 213 212 208 206 204 200 200
301 291 289 281 274 257 256 264 268 281 280 281 287 294 299 305 312 312 310 313 310 299 292 281 265 244 234 230 231 230 229 229 228 225 223 220 218 216 210 204 201 203 200
298 293 289 282 275 267 258 262 270 274 278 280 286 289 291 296 303 306 308 308 310 297 290 281 270 257 239 232 229 227 228 224 224 223 222 220 217 215 209 203 204 205 203
294 291 289 285 279 275 271 264 267 269 274 282 289 290 289 291 296 299 302 303 305 298 287 280 270 263 251 235 226 223 221 222 219 217 215 212 213 211 209 205 208 204 205
289 290 289 283 275 271 269 267 259 263 270 280 286 289 288 288 290 293 296 298 299 297 280 276 272 264 257 243 231 223 219 218 214 213 210 205 205 205 205 206 208 205 203
289 286 281 278 274 270 266 256 254 257 264 273 280 284 284 284 287 290 291 292 295 295 279 263 263 264 262 256 233 226 223 223 218 212 209 206 207 206 206 206 206 206 206